Nagagami, Ontario

8:43 AM EDT on March 24, 2017 (GMT -0400)
Nagagami

Weather History for CWNZ - September, 2013

Change the Weather History Date:

Saturday, September 28, 2013

  Actual Average Record
Temperature  
Mean Temperature 66 °F -  
Max Temperature 76 °F - - ()
Min Temperature 56 °F - - ()
Cooling Degree Days 1    
Growing Degree Days 16 (Base 50)    
Moisture  
Dew Point 48 °F    
Average Humidity 52    
Maximum Humidity 71    
Minimum Humidity 24    
Precipitation  
Precipitation 0.00 in - - ()
Sea Level Pressure  
Sea Level Pressure 29.90 in    
Wind  
Wind Speed 8 mph ()    
Max Wind Speed 16 mph    
Max Gust Speed 30 mph    
T = Trace of Precipitation, MM = Missing Value Source: Averaged Metar Reports

Daily Weather History Graph

Daily Weather History Graph

Search for Another Location

Airport or City:

Trip Planner

Search our weather history database for the weather conditions in past years. The results will help you decide how hot, cold, wet, or windy it might be!

Date:

Astronomy

Sep. 28, 2013 Rise Set
Actual Time 7:32 AM EDT 7:21 PM EDT
Civil Twilight 7:00 AM EDT 7:52 PM EDT
Nautical Twilight 6:22 AM EDT 8:30 PM EDT
Astronomical Twilight 5:44 AM EDT 9:08 PM EDT
Moon 12:49 AM EDT (9/28) 4:06 PM EDT (9/28)
Length of Visible Light 12h 52m
Length of Day
11h 48m
Last Quarter, 36% of the Moon is Illuminated
Sep 28
Last Quarter
Oct 4
New
Oct 11
First Quarter
Oct 18
Full
Oct 26
Last Quarter

Hourly Weather History & Observations

Time (EDT) Temp. Dew Point Humidity Pressure Visibility Wind Dir Wind Speed Gust Speed Precip Events Conditions
12:00 AM 60.3 °F 46.9 °F 61% 30.02 in - South 6.9 mph - N/A   Unknown
1:00 AM 58.5 °F 47.3 °F 66% 30.02 in - South 5.8 mph - N/A   Unknown
2:00 AM 58 °F 48 °F 62% 30.02 in - SSE 4.6 mph - -  
2:00 AM 57.7 °F 48.4 °F 71% 30.02 in - SSE 4.6 mph - N/A   Unknown
3:00 AM 59.4 °F 49.5 °F 70% 30.00 in - South 5.8 mph - N/A   Unknown
4:00 AM 60.4 °F 49.3 °F 67% 29.99 in - South 8.1 mph - N/A   Unknown
5:00 AM 61 °F 49 °F 56% 30.00 in - South 6.9 mph - -  
5:00 AM 60.6 °F 49.3 °F 66% 30.00 in - South 6.9 mph - N/A   Unknown
6:00 AM 59.4 °F 49.5 °F 70% 30.01 in - South 4.6 mph - N/A   Unknown
7:00 AM 60.3 °F 50.0 °F 69% 30.01 in - South 5.8 mph - N/A   Unknown
8:00 AM 60 °F 50 °F 62% 30.01 in - South 6.9 mph - -  
8:00 AM 60.1 °F 50.4 °F 70% 30.01 in - South 6.9 mph - N/A   Unknown
9:00 AM 62.6 °F 51.4 °F 67% 30.01 in - South 6.9 mph - N/A   Unknown
10:00 AM 65.5 °F 52.3 °F 62% 30.00 in - South 9.2 mph - N/A   Unknown
11:00 AM 68 °F 52 °F 47% 29.98 in - SSW 13.8 mph - -  
11:00 AM 67.8 °F 52.3 °F 58% 29.98 in - SSW 13.8 mph 25.3 mph N/A   Unknown
12:00 PM 71.4 °F 52.5 °F 51% 29.96 in - South 13.8 mph 26.5 mph N/A   Unknown
1:00 PM 72.9 °F 50.0 °F 44% 29.93 in - South 16.1 mph 28.8 mph N/A   Unknown
2:00 PM 74 °F 51 °F 34% 29.90 in - SSE 13.8 mph - -  
2:00 PM 74.1 °F 51.3 °F 45% 29.90 in - SSE 13.8 mph 24.2 mph N/A   Unknown
3:00 PM 75.2 °F 46.0 °F 35% 29.86 in - South 13.8 mph 24.2 mph N/A   Unknown
4:00 PM 74.8 °F 42.4 °F 31% 29.83 in - South 15.0 mph 29.9 mph N/A   Unknown
5:00 PM 74 °F 45 °F 24% 29.79 in - South 11.5 mph - -  
5:00 PM 73.6 °F 44.8 °F 36% 29.79 in - South 11.5 mph 19.6 mph N/A   Unknown
6:00 PM 73.2 °F 44.6 °F 36% 29.76 in - South 11.5 mph 18.4 mph N/A   Unknown
7:00 PM 70.3 °F 43.9 °F 38% 29.74 in - SSE 11.5 mph 17.3 mph N/A   Unknown
8:00 PM 68 °F 45 °F 32% 29.73 in - SSE 10.4 mph - -  
8:00 PM 68.0 °F 44.8 °F 43% 29.73 in - SSE 10.4 mph 19.6 mph N/A   Unknown
9:00 PM 66.4 °F 46.6 °F 49% 29.69 in - SSE 12.7 mph 24.2 mph N/A   Unknown
10:00 PM 65.3 °F 46.9 °F 51% 29.68 in - South 12.7 mph 25.3 mph N/A   Unknown
11:00 PM 65 °F 48 °F 44% 29.66 in - South 12.7 mph - -  
11:00 PM 64.6 °F 48.2 °F 55% 29.66 in - South 12.7 mph 24.2 mph N/A   Unknown